This is the latest recevied weather packets stored in our database for station/object N8QF. If no packets are shown the sender has not sent any weather packets the latest 10 day(s).
| Time | Temp. | Humidity | Pressure | Rain* | Wind** | Luminosity | Snow |
|---|---|---|---|---|---|---|---|
| 1777828627 | 15° C | 39% | 1017 hPa | 0 mm | - | - | - |
| 1777828327 | 15.56° C | 42% | 1017 hPa | 0 mm | - | - | - |
| 1777828026 | 15° C | 45% | 1017.2 hPa | 0 mm | - | - | - |
| 1777827726 | 15° C | 41% | 1017.3 hPa | 0 mm | - | - | - |
| 1777827425 | 14.44° C | 43% | 1017.4 hPa | 0 mm | - | - | - |
| 1777827124 | 15° C | 45% | 1017.5 hPa | 0 mm | - | - | - |
| 1777826820 | 14.44° C | 38% | 1017.5 hPa | 0 mm | - | - | - |
| 1777826520 | 14.44° C | 42% | 1017.6 hPa | 0 mm | - | - | - |
| 1777826220 | 14.44° C | 49% | 1017.6 hPa | 0 mm | - | - | - |
| 1777825920 | 14.44° C | 49% | 1017.8 hPa | 0 mm | - | - | - |
| 1777825620 | 14.44° C | 49% | 1017.8 hPa | 0 mm | - | - | - |
| 1777825319 | 14.44° C | 47% | 1017.9 hPa | 0 mm | - | - | - |
| 1777825018 | 13.89° C | 44% | 1018 hPa | 0 mm | - | - | - |
| 1777824718 | 13.89° C | 45% | 1018.1 hPa | 0 mm | - | - | - |
| 1777824418 | 13.89° C | 48% | 1018.1 hPa | 0 mm | - | - | - |
| 1777824118 | 13.89° C | 48% | 1018.1 hPa | 0 mm | - | - | - |
| 1777823817 | 13.89° C | 50% | 1018.1 hPa | 0 mm | - | - | - |
| 1777823517 | 13.33° C | 47% | 1018.2 hPa | 0 mm | - | - | - |
| 1777823217 | 13.33° C | 50% | 1018.3 hPa | 0 mm | - | - | - |
| 1777822916 | 12.78° C | 51% | 1018.4 hPa | 0 mm | - | - | - |
| 1777822616 | 12.78° C | 49% | 1018.4 hPa | 0 mm | - | - | - |
| 1777822316 | 12.78° C | 50% | 1018.4 hPa | 0 mm | - | - | - |
| 1777822016 | 12.22° C | 50% | 1018.4 hPa | 0 mm | - | - | - |
| 1777821715 | 12.22° C | 51% | 1018.4 hPa | 0 mm | - | - | - |
| 1777821415 | 12.22° C | 49% | 1018.5 hPa | 0 mm | - | - | - |
* Rain since midnight (hover to see other rain measurements)
** Current wind speed in m/s (hover to see current wind gust speed)